DW1970 Weather Reports


Display with metric or nautical units.
time (UTC)temp
F
wind
direction
speed
MPH
gust
MPH
rain 1hr
in
rain 24hr
in
rain mn
in
humidity
%
barometer
mb
20260507201521 55 342 1.0 9.0 0.00 0.03 0.02 94 1019.6
20260507200022 55 343 1.0 9.0 0.00 0.03 0.02 94 1019.8
20260507194522 55 331 0.0 4.0 0.01 0.03 0.02 95 1019.8
20260507193025 55 9 0.0 8.0 0.01 0.03 0.02 94 1019.9
20260507191517 54 349 0.0 6.0 0.01 0.03 0.02 95 1020.0
20260507190019 54 341 0.0 1.0 0.01 0.03 0.02 96 1020.1
20260507184515 54 344 0.0 0.0 0.00 0.02 0.01 96 1020.1
20260507183018 53 2 0.0 4.0 0.00 0.02 0.01 96 1020.3
20260507181512 53 343 0.0 2.0 0.00 0.02 0.01 96 1020.4
20260507180015 52 327 0.0 3.0 0.00 0.02 0.01 96 1020.3
20260507174512 52 340 0.0 0.0 0.01 0.03 0.01 96 1020.3
20260507173009 52 356 0.0 0.0 0.01 0.03 0.01 96 1020.2
20260507171510 52 346 0.0 0.0 0.01 0.03 0.01 96 1020.2
20260507170007 52 338 0.0 0.0 0.01 0.03 0.01 96 1020.1
20260507164508 52 358 0.0 0.0 0.00 0.02 0.00 96 1020.0
20260507163005 52 356 0.0 0.0 0.00 0.02 0.00 97 1020.0
20260507161504 52 324 0.0 1.0 0.00 0.02 0.00 96 1019.9
20260507160004 52 326 0.0 0.0 0.00 0.02 0.00 96 1019.9
20260507154501 52 167 0.0 0.0 0.00 0.02 0.00 96 1019.7
20260507153059 52 168 0.0 0.0 0.00 0.02 0.00 97 1019.6
20260507151601 51 162 0.0 0.0 0.00 0.02 0.00 96 1019.7
20260507150057 51 184 0.0 3.0 0.00 0.02 0.00 96 1019.6
20260507144557 51 152 0.0 0.0 0.00 0.02 0.00 96 1019.6
20260507143107 50 186 0.0 4.0 0.00 0.02 0.00 96 1019.6
20260507141607 50 152 0.0 0.0 0.00 0.02 0.00 96 1019.4
20260507140050 50 114 0.0 2.0 0.00 0.02 0.00 96 1019.3
20260507134550 51 135 0.0 1.0 0.00 0.02 0.00 96 1019.1
20260507133050 51 179 0.0 0.0 0.00 0.02 0.00 96 1018.9
20260507131600 51 180 0.0 0.0 0.00 0.02 0.00 96 1018.9
20260507130048 51 179 0.0 1.0 0.00 0.02 0.00 96 1018.9
20260507124548 51 21 0.0 0.0 0.00 0.02 0.00 96 1018.8
20260507123103 51 21 0.0 0.0 0.00 0.02 0.00 96 1018.8
20260507121546 51 21 0.0 0.0 0.00 0.02 0.00 96 1018.8
20260507120045 51 21 0.0 0.0 0.00 0.02 0.00 96 1018.9
20260507114551 50 136 0.0 0.0 0.00 0.02 0.00 96 1019.0
20260507113044 50 137 0.0 0.0 0.00 0.02 0.00 96 1019.0
20260507111544 50 137 0.0 0.0 0.00 0.02 0.00 96 1019.0
20260507110049 50 137 0.0 0.0 0.00 0.02 0.00 96 1019.0
20260507104542 50 121 0.0 0.0 0.00 0.02 0.00 96 1019.1
20260507103041 50 143 0.0 1.0 0.00 0.02 0.00 96 1019.0
20260507101541 50 157 0.0 0.0 0.00 0.02 0.00 96 1019.1
20260507100051 50 99 0.0 0.0 0.00 0.02 0.00 96 1019.2
20260507094539 50 98 0.0 0.0 0.00 0.02 0.00 96 1019.4
20260507093038 50 106 0.0 0.0 0.00 0.02 0.00 96 1019.2
20260507091540 50 153 0.0 0.0 0.00 0.02 0.00 96 1019.2
20260507090043 51 208 0.0 0.0 0.00 0.02 0.00 96 1019.3
20260507084541 51 208 0.0 0.0 0.00 0.02 0.00 96 1019.3
20260507083035 51 93 0.0 2.0 0.00 0.02 0.00 95 1019.2
20260507081533 51 110 0.0 3.0 0.00 0.02 0.00 95 1019.1
20260507080032 50 124 0.0 1.0 0.00 0.02 0.00 95 1019.1
20260507074530 51 194 0.0 0.0 0.00 0.02 0.00 95 1018.9
20260507073031 51 194 0.0 0.0 0.00 0.02 0.00 95 1018.9
20260507071533 51 179 0.0 0.0 0.00 0.02 0.00 95 1018.9
20260507070032 51 203 0.0 0.0 0.00 0.02 0.00 95 1018.9
20260507064535 51 296 0.0 0.0 0.00 0.02 0.02 95 1018.9
20260507063024 51 314 0.0 0.0 0.00 0.02 0.02 95 1018.8
20260507061523 52 338 0.0 0.0 0.00 0.02 0.02 95 1018.9
20260507060023 52 343 0.0 0.0 0.00 0.02 0.02 94 1019.0
20260507054522 52 354 0.0 1.0 0.00 0.02 0.02 94 1019.0
20260507053023 52 342 0.0 10.0 0.00 0.02 0.02 94 1019.1
20260507051520 52 357 0.0 2.0 0.00 0.02 0.02 94 1019.1
20260507050034 52 356 0.0 10.0 0.00 0.02 0.02 94 1019.2
20260507044517 52 345 0.0 11.0 0.00 0.02 0.02 94 1019.4
20260507043017 52 357 0.0 9.0 0.00 0.02 0.02 94 1019.4
20260507041524 52 336 0.0 9.0 0.00 0.02 0.02 94 1019.4
20260507040016 53 9 0.0 12.0 0.00 0.02 0.02 94 1019.6
20260507034514 53 326 3.0 13.0 0.00 0.03 0.02 93 1019.6
20260507033013 53 342 3.0 14.0 0.00 0.03 0.02 93 1019.7
20260507031513 53 352 2.0 14.0 0.00 0.03 0.02 93 1019.5
20260507030021 54 348 0.0 5.0 0.00 0.03 0.02 92 1019.3
20260507024514 54 323 0.0 10.0 0.00 0.03 0.02 92 1019.5
20260507023009 54 346 0.0 7.0 0.00 0.03 0.02 92 1019.4
20260507021509 55 1 0.0 13.0 0.00 0.03 0.02 91 1019.4
20260507020009 55 7 6.0 14.0 0.00 0.03 0.02 91 1019.5
20260507014511 55 2 7.0 18.0 0.00 0.03 0.02 90 1019.5
20260507013010 55 355 10.0 17.0 0.00 0.03 0.02 90 1019.7
20260507011504 55 356 4.0 16.0 0.00 0.03 0.02 90 1019.9
20260507010004 56 329 4.0 13.0 0.00 0.03 0.02 88 1019.9
20260507004500 57 27 0.0 15.0 0.00 0.03 0.02 88 1019.8
20260507003100 57 348 3.0 14.0 0.00 0.03 0.02 89 1019.7
20260507003000 57 341 5.0 14.0 0.00 0.03 0.02 88 1019.8
20260507001611 57 357 2.0 14.0 0.00 0.03 0.02 88 1019.8
20260507000100 58 355 4.0 13.0 0.00 0.03 0.02 88 1019.9
20260506234600 57 329 4.0 15.0 0.00 0.03 0.02 88 1019.9
20260506233100 57 3 5.0 14.0 0.00 0.03 0.02 88 1020.0
20260506231609 58 2 8.0 14.0 0.00 0.03 0.02 88 1020.2
20260506230111 58 342 1.0 15.0 0.00 0.03 0.02 89 1020.4
20260506224556 58 339 5.0 14.0 0.00 0.03 0.02 87 1020.5
20260506223056 58 325 5.0 16.0 0.01 0.03 0.02 87 1020.5
20260506221615 58 323 1.0 14.0 0.01 0.03 0.02 88 1020.7
20260506220113 59 346 3.0 11.0 0.01 0.03 0.02 86 1020.8
20260506214553 58 333 0.0 11.0 0.01 0.03 0.02 87 1020.8
20260506213105 58 352 0.0 11.0 0.00 0.02 0.01 87 1020.8
20260506211553 58 358 2.0 12.0 0.00 0.02 0.01 87 1021.0
20260506210056 58 359 4.0 14.0 0.00 0.02 0.01 87 1021.0
20260506204554 58 331 5.0 14.0 0.00 0.02 0.01 88 1021.1
20260506203049 58 329 3.0 14.0 0.00 0.02 0.01 88 1021.2